Tracking 28799 objects as of 18-Apr-2024
HD Live streaming from Space Station
objects crossing your sky now

FENGYUN 1C DEB

Track FENGYUN 1C DEB now!
10-day predictions


NORAD ID: 31959
Int'l Code: 1999-025CNL
Perigee: 771.1 km
Apogee: 822.4 km
Inclination: 98.5 °
Period: 100.7 minutes
Semi major axis: 7167 km
RCS: 0.0084 m2 (small)
Launch date: May 10, 1999
Source: People's Republic of China (PRC)
Launch site: Taiyaun Space Center, China (TSC)

Note: This is SATELLITE DEBRIS
Your satellite tracking list
Your tracking list is empty




NASA's NSSDC Master Catalog

Two Line Element Set (TLE):
1 31959U 99025CNL 24106.42504128  .00009021  00000-0  34422-2 0  9990
2 31959  98.5370 334.9878 0035788 166.7171 193.4963 14.30629772556320
Source of the keplerian elements: AFSPC